2023/02/18 00:00:00,88.7, 1.6
2023/02/18 00:10:00,88.7, 1.5
2023/02/18 00:20:00,88.6, 1.7
2023/02/18 00:30:00,88.6, 1.8
2023/02/18 00:40:00,88.7, 2.1
2023/02/18 00:50:00,88.7, 2.3
2023/02/18 01:00:00,88.7, 2.1
2023/02/18 01:10:00,88.6, 2.4
2023/02/18 01:20:00,88.6, 2.4
2023/02/18 01:30:00,88.6, 2.1
2023/02/18 01:40:00,88.6, 2.3
2023/02/18 01:50:00,88.4, 2.1
2023/02/18 02:00:00,88.4, 2.1
2023/02/18 02:10:00,88.4, 2.3
2023/02/18 02:20:00,88.4, 2.4
2023/02/18 02:30:00,88.3, 2.4
2023/02/18 02:40:00,88.3, 2.2
2023/02/18 02:50:00,88.3, 2.4
2023/02/18 03:00:00,88.1, 2.3
2023/02/18 03:10:00,88.1, 2.2
2023/02/18 03:20:00,88.0, 2.4
2023/02/18 03:30:00,88.0, 2.4
2023/02/18 03:40:00,88.0, 2.2
2023/02/18 03:50:00,88.0, 2.3
2023/02/18 04:00:00,88.0, 2.4
2023/02/18 04:10:00,87.9, 2.3
2023/02/18 04:20:00,87.9, 2.4
2023/02/18 04:30:00,87.8, 2.4
2023/02/18 04:40:00,87.8, 2.5
2023/02/18 04:50:00,87.8, 2.3
2023/02/18 05:00:00,87.8, 2.3
2023/02/18 05:10:00,87.7, 2.6
2023/02/18 05:20:00,87.7, 2.8
2023/02/18 05:30:00,87.6, 2.4
2023/02/18 05:40:00,87.5, 2.4
2023/02/18 05:50:00,87.5, 2.7
2023/02/18 06:00:00,87.5, 2.6
2023/02/18 06:10:00,87.4, 2.4
2023/02/18 06:20:00,87.4, 2.4
2023/02/18 06:30:00,87.3, 2.5
2023/02/18 06:40:00,87.3, 2.4
2023/02/18 06:50:00,87.3, 2.3
2023/02/18 07:00:00,87.3, 2.4
2023/02/18 07:10:00,87.3, 2.8
2023/02/18 07:20:00,87.2, 2.6
2023/02/18 07:30:00,87.1, 2.6
2023/02/18 07:40:00,87.1, 2.6
2023/02/18 07:50:00,87.1, 3.1
2023/02/18 08:00:00,87.0, 3.4
2023/02/18 08:10:00,87.0, 4.1
2023/02/18 08:20:00,87.0, 4.3
2023/02/18 08:30:00,87.1, 4.3
2023/02/18 08:40:00,87.0, 4.7
2023/02/18 08:50:00,86.9, 4.6
2023/02/18 09:00:00,86.9, 4.3
2023/02/18 09:10:00,86.8, 4.3
2023/02/18 09:20:00,86.7, 4.6
2023/02/18 09:30:00,86.5, 4.7
2023/02/18 09:40:00,86.6, 4.7
2023/02/18 09:50:00,86.4, 4.4
2023/02/18 10:00:00,86.3, 4.4
2023/02/18 10:10:00,86.1, 5.0
2023/02/18 10:20:00,86.0, 4.8
2023/02/18 10:30:00,85.7, 4.7
2023/02/18 10:40:00,85.5, 4.9
2023/02/18 10:50:00,85.2, 4.7
2023/02/18 11:00:00,85.0, 4.5
2023/02/18 11:10:00,85.0, 4.2
2023/02/18 11:20:00,84.8, 4.3
2023/02/18 11:30:00,83.8, 4.9
2023/02/18 11:40:00,82.8, 4.8
2023/02/18 11:50:00,82.5, 5.3
2023/02/18 12:00:00,82.4, 5.0
2023/02/18 12:10:00,82.4, 4.9
2023/02/18 12:20:00,82.5, 5.0
2023/02/18 12:30:00,82.5, 4.8
2023/02/18 12:40:00,82.6, 4.9
2023/02/18 12:50:00,82.6, 5.1
2023/02/18 13:00:00,82.6, 4.7
2023/02/18 13:10:00,82.7, 4.9
2023/02/18 13:20:00,82.8, 5.2
2023/02/18 13:30:00,82.8, 5.5
2023/02/18 13:40:00,82.7, 5.2
2023/02/18 13:50:00,82.7, 5.1
2023/02/18 14:00:00,82.7, 5.9
2023/02/18 14:10:00,82.5, 5.6
2023/02/18 14:20:00,82.5, 5.7
2023/02/18 14:30:00,82.4, 5.7
2023/02/18 14:40:00,82.3, 5.3
2023/02/18 14:50:00,82.2, 5.6
2023/02/18 15:00:00,82.1, 5.7
2023/02/18 15:10:00,82.1, 5.7
2023/02/18 15:20:00,82.1, 5.7
2023/02/18 15:30:00,82.0, 5.2
2023/02/18 15:40:00,81.5, 4.7
2023/02/18 15:50:00,81.4, 4.4
2023/02/18 16:00:00,81.3, 5.4
2023/02/18 16:10:00,81.1, 5.7
2023/02/18 16:20:00,80.9, 5.6
2023/02/18 16:30:00,80.8, 5.6
2023/02/18 16:40:00,80.8, 5.7
2023/02/18 16:50:00,80.7, 5.2
2023/02/18 17:00:00,80.7, 5.7
2023/02/18 17:10:00,80.9, 5.7
2023/02/18 17:20:00,80.9, 5.7
2023/02/18 17:30:00,80.4, 6.0
2023/02/18 17:40:00,79.9, 6.1
2023/02/18 17:50:00,79.7, 5.8
2023/02/18 18:00:00,79.5, 5.9
2023/02/18 18:10:00,79.3, 6.3
2023/02/18 18:20:00,79.2, 5.7
2023/02/18 18:30:00,79.1, 5.3
2023/02/18 18:40:00,78.1, 5.4
2023/02/18 18:50:00,77.9, 5.8
2023/02/18 19:00:00,77.9, 6.0
2023/02/18 19:10:00,78.1, 6.0
2023/02/18 19:20:00,78.0, 6.0
2023/02/18 19:30:00,78.1, 5.8
2023/02/18 19:40:00,78.1, 6.0
2023/02/18 19:50:00,78.2, 6.0
2023/02/18 20:00:00,78.2, 6.1
2023/02/18 20:10:00,78.2, 6.5
2023/02/18 20:20:00,78.3, 6.5
2023/02/18 20:30:00,78.4, 6.3
2023/02/18 20:40:00,78.5, 6.4
2023/02/18 20:50:00,78.2, 6.3
2023/02/18 21:00:00,78.0, 6.1
2023/02/18 21:10:00,78.0, 6.0
2023/02/18 21:20:00,78.0, 6.1
2023/02/18 21:30:00,77.9, 6.3
2023/02/18 21:40:00,77.7, 6.3
2023/02/18 21:50:00,77.6, 6.7
2023/02/18 22:00:00,77.5, 6.0
2023/02/18 22:10:00,77.0, 6.7
2023/02/18 22:20:00,76.6, 6.6
2023/02/18 22:30:00,76.6, 6.5
2023/02/18 22:40:00,76.7, 6.7
2023/02/18 22:50:00,76.6, 7.1
2023/02/18 23:00:00,76.5, 6.7
2023/02/18 23:10:00,76.4, 6.2
2023/02/18 23:20:00,76.4, 6.5
2023/02/18 23:30:00,76.3, 6.8
2023/02/18 23:40:00,76.1, 6.8
2023/02/18 23:50:00,76.0, 6.9
